DW5852 Weather Reports


time (UTC)temp
C
wind
direction
speed
KPH
gust
KPH
rain 1hr
cm
rain 24hr
cm
rain mn
cm
humidity
%
barometer
mb
20260508033712 15 258 0.0 3.2 0.00 0.00 0.00 13 1025.8
20260508033214 15 268 0.0 3.2 0.00 0.00 0.00 13 1025.7
20260508032711 15 179 0.0 3.2 0.00 0.00 0.00 13 1025.5
20260508032211 15 232 0.0 6.4 0.00 0.00 0.00 12 1025.4
20260508031711 15 250 0.0 6.4 0.00 0.00 0.00 13 1025.2
20260508031214 15 269 0.0 9.7 0.00 0.00 0.00 13 1025.1
20260508030714 15 261 0.0 4.8 0.00 0.00 0.00 13 1025.1
20260508030211 15 337 0.0 0.0 0.00 0.00 0.00 14 1025.0
20260508025714 15 258 0.0 0.0 0.00 0.00 0.00 14 1024.9
20260508025211 15 302 0.0 0.0 0.00 0.00 0.00 14 1024.9
20260508024711 15 314 0.0 0.0 0.00 0.00 0.00 14 1024.8
20260508024212 15 241 0.0 0.0 0.00 0.00 0.00 14 1024.7
20260508023712 15 250 0.0 0.0 0.00 0.00 0.00 14 1024.6
20260508023211 15 235 0.0 1.6 0.00 0.00 0.00 14 1024.5
20260508022714 15 248 0.0 1.6 0.00 0.00 0.00 14 1024.3
20260508022211 15 236 0.0 0.0 0.00 0.00 0.00 15 1024.2
20260508021711 15 240 0.0 0.0 0.00 0.00 0.00 15 1024.1
20260508021211 15 248 0.0 0.0 0.00 0.00 0.00 16 1024.0
20260508020714 15 245 0.0 0.0 0.00 0.00 0.00 16 1024.0
20260508020214 15 245 0.0 0.0 0.00 0.00 0.00 15 1023.8
20260508015715 15 245 0.0 0.0 0.00 0.00 0.00 15 1023.7
20260508015211 16 245 0.0 0.0 0.00 0.00 0.00 15 1023.6
20260508014711 16 245 0.0 0.0 0.00 0.00 0.00 14 1023.4
20260508014214 17 294 0.0 0.0 0.00 0.00 0.00 13 1023.3
20260508013714 17 94 0.0 0.0 0.00 0.00 0.00 14 1023.1
20260508013214 18 94 0.0 0.0 0.00 0.00 0.00 12 1023.0
20260508012711 18 93 0.0 0.0 0.00 0.00 0.00 12 1022.8
20260508012211 18 80 0.0 0.0 0.00 0.00 0.00 11 1022.6
20260508011714 18 93 0.0 0.0 0.00 0.00 0.00 11 1022.5
20260508011214 18 86 0.0 0.0 0.00 0.00 0.00 11 1022.4
20260508010711 18 162 0.0 0.0 0.00 0.00 0.00 11 1022.4
20260508010214 18 93 0.0 0.0 0.00 0.00 0.00 11 1022.3
20260508005711 18 111 0.0 0.0 0.00 0.00 0.00 10 1022.2
20260508005214 19 68 0.0 0.0 0.00 0.00 0.00 11 1022.1
20260508004714 19 117 0.0 1.6 0.00 0.00 0.00 11 1022.0
20260508004214 20 114 0.0 0.0 0.00 0.00 0.00 10 1022.0
20260508003711 20 188 0.0 0.0 0.00 0.00 0.00 11 1022.0
20260508003211 20 94 0.0 0.0 0.00 0.00 0.00 11 1021.8
20260508002711 20 68 0.0 0.0 0.00 0.00 0.00 10 1021.7
20260508002211 20 148 0.0 0.0 0.00 0.00 0.00 11 1021.6
20260508001711 20 139 0.0 0.0 0.00 0.00 0.00 11 1021.5
20260508001211 20 91 0.0 0.0 0.00 0.00 0.00 11 1021.4
20260508000711 20 139 0.0 0.0 0.00 0.00 0.00 11 1021.4
20260508000212 20 173 0.0 1.6 0.00 0.00 0.00 11 1021.3
20260507235714 20 120 0.0 1.6 0.00 0.00 0.00 11 1021.2
20260507235211 20 197 0.0 0.0 0.00 0.00 0.00 11 1021.1
20260507234714 20 191 0.0 1.6 0.00 0.00 0.00 11 1021.1
20260507234212 20 191 0.0 0.0 0.00 0.00 0.00 12 1020.9
20260507233211 20 134 0.0 0.0 0.00 0.00 0.00 13 1020.8
20260507232714 20 128 0.0 0.0 0.00 0.00 0.00 13 1020.7
20260507232214 20 246 0.0 0.0 0.00 0.00 0.00 14 1020.6
20260507231711 20 222 0.0 0.0 0.00 0.00 0.00 14 1020.6
20260507231211 20 183 0.0 0.0 0.00 0.00 0.00 15 1020.5
20260507230711 20 172 0.0 0.0 0.00 0.00 0.00 15 1020.4
20260507230211 20 193 0.0 4.8 0.00 0.00 0.00 16 1020.3
20260507225714 20 131 0.0 14.5 0.00 0.00 0.00 16 1020.2
20260507225211 20 146 0.0 0.0 0.00 0.00 0.00 17 1020.2
20260507224714 20 101 0.0 0.0 0.00 0.00 0.00 17 1020.0
20260507224214 19 210 0.0 6.4 0.00 0.00 0.00 17 1020.0
20260507223711 20 191 0.0 4.8 0.00 0.00 0.00 17 1019.9
20260507223211 20 158 0.0 11.3 0.00 0.00 0.00 17 1019.8
20260507222714 20 155 0.0 0.0 0.00 0.00 0.00 18 1019.7
20260507222214 20 170 0.0 1.6 0.00 0.00 0.00 18 1019.7
20260507221714 20 205 0.0 0.0 0.00 0.00 0.00 18 1019.6
20260507221212 20 207 0.0 4.8 0.00 0.00 0.00 20 1019.6
20260507220714 20 203 0.0 0.0 0.00 0.00 0.00 19 1019.6
20260507220211 20 169 0.0 0.0 0.00 0.00 0.00 20 1019.5
20260507215711 20 218 0.0 0.0 0.00 0.00 0.00 21 1019.5
20260507215214 20 166 0.0 0.0 0.00 0.00 0.00 20 1019.5
20260507214714 20 260 0.0 0.0 0.00 0.00 0.00 22 1019.4
20260507214215 20 169 0.0 1.6 0.00 0.00 0.00 21 1019.5
20260507213714 20 150 0.0 0.0 0.00 0.00 0.00 22 1019.4
20260507213214 19 148 0.0 1.6 0.00 0.00 0.00 22 1019.4
20260507212711 19 173 0.0 12.9 0.00 0.00 0.00 22 1019.4
20260507212214 19 187 0.0 1.6 0.00 0.00 0.00 21 1019.4
20260507211714 20 160 0.0 1.6 0.00 0.00 0.00 21 1019.5
20260507211211 20 147 0.0 0.0 0.00 0.00 0.00 21 1019.4
20260507210714 19 95 0.0 0.0 0.00 0.00 0.00 20 1019.4
20260507210211 20 180 0.0 0.0 0.00 0.00 0.00 19 1019.3
20260507205714 20 160 0.0 0.0 0.00 0.00 0.00 20 1019.2
20260507205211 19 146 0.0 0.0 0.00 0.00 0.00 21 1019.2
20260507204711 19 253 0.0 0.0 0.00 0.00 0.00 21 1019.2
20260507204214 18 166 0.0 0.0 0.00 0.00 0.00 21 1019.2
20260507203714 18 139 0.0 11.3 0.00 0.00 0.00 20 1019.2
20260507203211 19 176 0.0 11.3 0.00 0.00 0.00 21 1019.1
20260507202711 18 263 0.0 0.0 0.00 0.00 0.00 21 1019.0
20260507202214 17 174 0.0 1.6 0.00 0.00 0.00 22 1019.1
20260507201711 17 120 0.0 3.2 0.00 0.00 0.00 22 1019.0
20260507201211 17 117 0.0 16.1 0.00 0.00 0.00 21 1019.0
20260507200714 18 58 0.0 0.0 0.00 0.00 0.00 21 1018.9
20260507200214 18 143 0.0 0.0 0.00 0.00 0.00 21 1018.8
20260507195714 18 239 0.0 0.0 0.00 0.00 0.00 22 1018.8
20260507195211 17 104 0.0 0.0 0.00 0.00 0.00 22 1018.7
20260507194711 17 258 0.0 0.0 0.00 0.00 0.00 22 1018.8
20260507194211 17 162 0.0 0.0 0.00 0.00 0.00 23 1018.7
20260507193711 17 302 0.0 0.0 0.00 0.00 0.00 23 1018.7
20260507193211 16 262 0.0 0.0 0.00 0.00 0.00 24 1018.7
20260507192711 16 239 0.0 0.0 0.00 0.00 0.00 24 1018.7
20260507192211 16 94 0.0 0.0 0.00 0.00 0.00 25 1018.7
20260507191711 15 250 0.0 0.0 0.00 0.00 0.00 25 1018.6
20260507191214 15 55 0.0 8.0 0.00 0.00 0.00 25 1018.7
20260507190714 15 135 0.0 1.6 0.00 0.00 0.00 25 1018.5
20260507190214 16 108 0.0 0.0 0.00 0.00 0.00 25 1018.5
20260507185714 16 172 0.0 1.6 0.00 0.00 0.00 24 1018.6
20260507185214 16 116 0.0 0.0 0.00 0.00 0.00 24 1018.4
20260507184714 15 52 0.0 0.0 0.00 0.00 0.00 26 1018.5
20260507184214 15 78 0.0 1.6 0.00 0.00 0.00 25 1018.5
20260507183714 15 310 0.0 0.0 0.00 0.00 0.00 26 1018.5
20260507183211 15 330 0.0 0.0 0.00 0.00 0.00 26 1018.4
20260507182711 15 302 0.0 0.0 0.00 0.00 0.00 26 1018.3
20260507182211 15 319 0.0 0.0 0.00 0.00 0.00 27 1018.4
20260507181714 15 67 0.0 1.6 0.00 0.00 0.00 26 1018.4
20260507181211 14 308 0.0 0.0 0.00 0.00 0.00 27 1018.4
20260507180711 13 77 0.0 0.0 0.00 0.00 0.00 28 1018.4
20260507180211 13 90 0.0 1.6 0.00 0.00 0.00 29 1018.4
20260507175714 13 325 0.0 0.0 0.00 0.00 0.00 29 1018.4
20260507175214 13 79 0.0 0.0 0.00 0.00 0.00 29 1018.4
20260507174714 12 24 0.0 17.7 0.00 0.00 0.00 29 1018.4
20260507174211 12 166 0.0 0.0 0.00 0.00 0.00 31 1018.4
20260507173711 12 68 0.0 1.6 0.00 0.00 0.00 30 1018.4
20260507173211 12 77 0.0 1.6 0.00 0.00 0.00 31 1018.4
20260507172714 11 163 0.0 12.9 0.00 0.00 0.00 31 1018.4
20260507172211 11 27 0.0 11.3 0.00 0.00 0.00 31 1018.4
20260507171714 12 47 1.6 4.8 0.00 0.00 0.00 31 1018.5
20260507171214 12 148 0.0 8.0 0.00 0.00 0.00 32 1018.4
20260507170714 11 33 0.0 1.6 0.00 0.00 0.00 32 1018.4
20260507170211 11 325 0.0 1.6 0.00 0.00 0.00 32 1018.5
20260507165711 11 77 0.0 1.6 0.00 0.00 0.00 33 1018.4
20260507165214 11 55 0.0 11.3 0.00 0.00 0.00 33 1018.4
20260507164714 11 61 3.2 3.2 0.00 0.00 0.00 34 1018.4
20260507164214 10 71 0.0 11.3 0.00 0.00 0.00 35 1018.3
20260507163714 10 73 0.0 11.3 0.00 0.00 0.00 35 1018.4
20260507163214 10 95 0.0 6.4 0.00 0.00 0.00 36 1018.4
20260507162711 10 270 0.0 3.2 0.00 0.00 0.00 35 1018.3
20260507162214 10 16 0.0 6.4 0.00 0.00 0.00 35 1018.5
20260507161714 10 98 0.0 1.6 0.00 0.00 0.00 36 1018.5
20260507161214 9 302 0.0 0.0 0.00 0.00 0.00 37 1018.5
20260507160711 8 0 0.0 9.7 0.00 0.00 0.00 38 1018.5
20260507160211 8 128 0.0 3.2 0.00 0.00 0.00 39 1018.4
20260507155711 8 46 0.0 22.5 0.00 0.00 0.00 39 1018.5
20260507155214 8 27 0.0 4.8 0.00 0.00 0.00 38 1018.4
20260507154714 8 35 1.6 4.8 0.00 0.00 0.00 38 1018.4
20260507154214 8 71 0.0 9.7 0.00 0.00 0.00 38 1018.5
20260507153711 8 65 0.0 8.0 0.00 0.00 0.00 39 1018.5
20260507153214 8 61 0.0 4.8 0.00 0.00 0.00 38 1018.3
20260507152714 8 62 0.0 4.8 0.00 0.00 0.00 38 1018.3
20260507152214 8 58 0.0 16.1 0.00 0.00 0.00 39 1018.4
20260507151714 8 39 0.0 19.3 0.00 0.00 0.00 39 1018.4
20260507151214 7 359 12.9 12.9 0.00 0.00 0.00 39 1018.4
20260507150711 7 344 4.8 8.0 0.00 0.00 0.00 40 1018.5
20260507150211 7 96 0.0 19.3 0.00 0.00 0.00 43 1018.5
20260507145714 7 23 0.0 20.9 0.00 0.00 0.00 44 1018.5
20260507145211 7 38 0.0 6.4 0.00 0.00 0.00 45 1018.6
20260507144711 7 86 0.0 8.0 0.00 0.00 0.00 43 1018.6
20260507144211 7 68 0.0 6.4 0.00 0.00 0.00 45 1018.6
20260507143711 7 50 0.0 8.0 0.00 0.00 0.00 45 1018.6
20260507143214 7 349 0.0 9.7 0.00 0.00 0.00 46 1018.6
20260507142711 6 58 0.0 4.8 0.00 0.00 0.00 47 1018.6
20260507142211 6 6 0.0 0.0 0.00 0.00 0.00 50 1018.6
20260507141714 6 96 0.0 0.0 0.00 0.00 0.00 53 1018.7
20260507141211 6 79 0.0 0.0 0.00 0.00 0.00 54 1018.8
20260507140711 5 104 0.0 0.0 0.00 0.00 0.00 55 1018.9
20260507140214 5 10 0.0 0.0 0.00 0.00 0.00 55 1019.0
20260507135711 5 20 0.0 0.0 0.00 0.00 0.00 56 1019.0
20260507135211 5 84 0.0 0.0 0.00 0.00 0.00 54 1019.0
20260507134714 5 34 0.0 0.0 0.00 0.00 0.00 53 1019.2
20260507134214 5 27 0.0 0.0 0.00 0.00 0.00 54 1019.2
20260507133714 4 60 0.0 0.0 0.00 0.00 0.00 55 1019.2
20260507133211 4 53 0.0 0.0 0.00 0.00 0.00 55 1019.3
20260507132711 3 63 0.0 0.0 0.00 0.00 0.00 56 1019.2
20260507132214 3 49 0.0 0.0 0.00 0.00 0.00 55 1019.3
20260507131714 3 68 0.0 0.0 0.00 0.00 0.00 56 1019.4
20260507131211 3 55 0.0 0.0 0.00 0.00 0.00 57 1019.4
20260507130714 4 89 0.0 0.0 0.00 0.00 0.00 56 1019.3
20260507130214 4 89 0.0 0.0 0.00 0.00 0.00 57 1019.3
20260507125711 3 89 0.0 0.0 0.00 0.00 0.00 58 1019.4
20260507125211 3 89 0.0 0.0 0.00 0.00 0.00 59 1019.3
20260507124714 3 89 0.0 0.0 0.00 0.00 0.00 60 1019.4
20260507124211 3 89 0.0 0.0 0.00 0.00 0.00 60 1019.5
20260507123711 2 89 0.0 0.0 0.00 0.00 0.00 60 1019.5
20260507123211 3 34 0.0 0.0 0.00 0.00 0.00 58 1019.5
20260507122714 2 46 0.0 0.0 0.00 0.00 0.00 58 1019.5
20260507122211 2 49 0.0 0.0 0.00 0.00 0.00 59 1019.6
20260507121711 2 338 0.0 0.0 0.00 0.00 0.00 59 1019.5
20260507121211 2 337 0.0 0.0 0.00 0.00 0.00 59 1019.6
20260507120714 2 325 0.0 0.0 0.00 0.00 0.00 59 1019.7
20260507120211 2 316 0.0 0.0 0.00 0.00 0.00 60 1019.8
20260507115714 2 316 0.0 0.0 0.00 0.00 0.00 59 1019.9
20260507115214 2 315 0.0 0.0 0.00 0.00 0.00 59 1019.9
20260507114711 2 335 0.0 0.0 0.00 0.00 0.00 60 1020.0
20260507114211 2 305 0.0 1.6 0.00 0.00 0.00 60 1020.1
20260507113711 2 332 0.0 0.0 0.00 0.00 0.00 60 1020.1
20260507113214 2 320 0.0 0.0 0.00 0.00 0.00 60 1020.2
20260507112711 2 316 0.0 0.0 0.00 0.00 0.00 60 1020.4
20260507112211 2 322 0.0 0.0 0.00 0.00 0.00 61 1020.4
20260507111714 2 340 0.0 0.0 0.00 0.00 0.00 61 1020.4
20260507111211 2 330 0.0 0.0 0.00 0.00 0.00 61 1020.4
20260507110714 2 305 0.0 0.0 0.00 0.00 0.00 60 1020.4
20260507110211 2 315 0.0 0.0 0.00 0.00 0.00 61 1020.5
20260507105711 2 329 0.0 0.0 0.00 0.00 0.00 62 1020.5
20260507105214 2 321 0.0 0.0 0.00 0.00 0.00 62 1020.5
20260507104711 2 322 0.0 0.0 0.00 0.00 0.00 62 1020.6
20260507104211 2 322 0.0 0.0 0.00 0.00 0.00 61 1020.8
20260507103711 2 321 0.0 0.0 0.00 0.00 0.00 61 1020.8
20260507103211 2 72 0.0 0.0 0.00 0.00 0.00 61 1020.9
20260507102714 2 72 0.0 0.0 0.00 0.00 0.00 60 1021.1
20260507102211 2 68 0.0 0.0 0.00 0.00 0.00 58 1021.1
20260507101714 3 343 0.0 0.0 0.00 0.00 0.00 57 1021.2
20260507101214 3 343 0.0 0.0 0.00 0.00 0.00 58 1021.2
20260507100711 3 335 0.0 0.0 0.00 0.00 0.00 57 1021.2
20260507100211 3 330 0.0 0.0 0.00 0.00 0.00 57 1021.2
20260507095714 3 316 0.0 0.0 0.00 0.00 0.00 58 1021.3
20260507095211 3 335 0.0 0.0 0.00 0.00 0.00 57 1021.3
20260507094714 3 345 0.0 0.0 0.00 0.00 0.00 57 1021.3
20260507094211 3 312 0.0 0.0 0.00 0.00 0.00 57 1021.3
20260507093714 3 313 0.0 0.0 0.00 0.00 0.00 57 1021.4
20260507093211 3 345 0.0 0.0 0.00 0.00 0.00 56 1021.5
20260507092711 3 310 0.0 1.6 0.00 0.00 0.00 57 1021.4
20260507092214 3 322 0.0 0.0 0.00 0.00 0.00 57 1021.6
20260507091711 3 335 0.0 0.0 0.00 0.00 0.00 58 1021.6
20260507091214 2 312 0.0 0.0 0.00 0.00 0.00 59 1021.7
20260507090711 2 350 0.0 0.0 0.00 0.00 0.00 59 1021.8
20260507090211 2 298 0.0 0.0 0.00 0.00 0.00 60 1021.8
20260507085714 2 322 0.0 0.0 0.00 0.00 0.00 60 1021.8
20260507085214 2 335 0.0 0.0 0.00 0.00 0.00 60 1021.9
20260507084714 3 344 0.0 0.0 0.00 0.00 0.00 60 1022.0
20260507084214 3 23 0.0 0.0 0.00 0.00 0.00 59 1022.0
20260507083711 3 317 0.0 1.6 0.00 0.00 0.00 59 1022.2
20260507083214 3 328 0.0 0.0 0.00 0.00 0.00 59 1022.3
20260507082711 3 335 0.0 0.0 0.00 0.00 0.00 59 1022.2
20260507082214 3 320 0.0 0.0 0.00 0.00 0.00 59 1022.4
20260507081711 3 335 0.0 0.0 0.00 0.00 0.00 60 1022.5
20260507081211 2 325 0.0 0.0 0.00 0.00 0.00 61 1022.5
20260507080714 2 325 0.0 0.0 0.00 0.00 0.00 61 1022.5
20260507080214 2 249 0.0 0.0 0.00 0.00 0.00 61 1022.5
20260507075711 2 310 0.0 0.0 0.00 0.00 0.00 62 1022.6
20260507075214 2 305 0.0 0.0 0.00 0.00 0.00 63 1022.7
20260507074711 3 314 0.0 0.0 0.00 0.00 0.00 63 1022.9
20260507074211 3 314 0.0 0.0 0.00 0.00 0.00 62 1023.0
20260507073711 3 314 0.0 0.0 0.00 0.00 0.00 63 1023.0
20260507073211 3 37 0.0 0.0 0.00 0.00 0.00 64 1022.9
20260507072714 3 305 0.0 0.0 0.00 0.00 0.00 65 1023.0
20260507072214 2 308 0.0 0.0 0.00 0.00 0.00 66 1023.0
20260507071714 2 348 0.0 0.0 0.00 0.00 0.00 68 1023.0
20260507071214 2 349 0.0 0.0 0.00 0.00 0.00 69 1023.1
20260507070714 2 5 0.0 0.0 0.00 0.00 0.00 68 1023.1
20260507070211 3 11 0.0 0.0 0.00 0.00 0.00 67 1023.0
20260507065714 3 12 0.0 0.0 0.00 0.00 0.00 67 1022.9
20260507065214 3 15 0.0 0.0 0.00 0.00 0.00 67 1022.9
20260507064711 3 6 0.0 0.0 0.00 0.00 0.00 66 1023.0
20260507064211 3 305 0.0 0.0 0.00 0.00 0.00 66 1023.1
20260507063711 3 15 0.0 0.0 0.00 0.00 0.00 66 1023.0
20260507063211 3 332 0.0 0.0 0.00 0.00 0.00 66 1023.1
20260507062711 3 331 0.0 1.6 0.00 0.00 0.00 65 1023.1
20260507062211 3 335 0.0 0.0 0.00 0.00 0.00 63 1023.2
20260507061714 4 10 0.0 3.2 0.00 0.00 0.00 63 1023.1
20260507061214 4 30 1.6 1.6 0.00 0.00 0.00 62 1023.3
20260507060714 4 18 0.0 1.6 0.00 0.00 0.00 62 1023.3
20260507060211 4 11 0.0 1.6 0.00 0.00 0.00 62 1023.3
20260507055711 4 58 0.0 0.0 0.00 0.00 0.00 62 1023.3
20260507055211 3 30 0.0 1.6 0.00 0.00 0.00 63 1023.3
20260507054714 3 314 0.0 0.0 0.00 0.00 0.00 62 1023.3
20260507054214 4 314 0.0 0.0 0.00 0.00 0.00 60 1023.3
20260507053711 4 313 0.0 0.0 0.00 0.00 0.00 59 1023.3
20260507053211 4 314 0.0 0.0 0.00 0.00 0.00 60 1023.3
20260507052711 4 300 0.0 0.0 0.00 0.00 0.00 59 1023.3
20260507052214 4 90 0.0 0.0 0.00 0.00 0.00 59 1023.3
20260507051711 4 318 0.0 0.0 0.00 0.00 0.00 57 1023.4
20260507051214 4 317 0.0 0.0 0.00 0.00 0.00 58 1023.4
20260507050714 4 36 0.0 0.0 0.00 0.00 0.00 56 1023.5
20260507050214 4 343 0.0 0.0 0.00 0.00 0.00 59 1023.5
20260507045711 3 359 0.0 0.0 0.00 0.00 0.00 59 1023.5
20260507045214 3 8 0.0 0.0 0.00 0.00 0.00 61 1023.5
20260507044711 3 8 0.0 0.0 0.00 0.00 0.00 67 1023.5
20260507044214 3 8 0.0 0.0 0.00 0.00 0.00 72 1023.5
20260507043714 3 8 0.0 0.0 0.00 0.00 0.00 72 1023.4
20260507043211 3 8 0.0 0.0 0.00 0.00 0.00 73 1023.5
20260507042711 3 8 0.0 0.0 0.00 0.00 0.00 72 1023.4
20260507042211 3 8 0.0 0.0 0.00 0.00 0.00 71 1023.5
20260507041714 3 8 0.0 0.0 0.00 0.00 0.00 71 1023.5
20260507041214 3 7 0.0 0.0 0.00 0.00 0.00 71 1023.4
20260507040714 3 8 0.0 0.0 0.00 0.00 0.00 71 1023.4
20260507040211 3 8 0.0 0.0 0.00 0.00 0.00 71 1023.4
20260507035711 3 20 0.0 0.0 0.00 0.00 0.00 70 1023.4
20260507035214 4 30 0.0 0.0 0.00 0.00 0.00 70 1023.3
20260507034711 4 16 0.0 0.0 0.00 0.00 0.00 69 1023.2
20260507034214 4 74 0.0 1.6 0.00 0.00 0.00 69 1023.3